Voltar ao catálogo

STARLINK-30500

AtivoComunicaçõesVLEO
NORAD 58076·PAYLOAD·🇺🇸 United States

Lançado Oct 18, 2023 de Cape Canaveral Space Force Station

Loading…

Próximas Passagens (próximas 24 horas)

TLE

AtualizadoSource: CelesTrak SupGP

Época: Sep 15, 2026, 03:00 UTC

1 58076C 23160B   26258.12548611  .00000695  00000+0  25164-4 0  2588
2 58076  43.0006  88.0520 0001164 272.8962 227.3914 15.27583422    10

Acompanhe STARLINK-30500 em tempo real com AllMySat

Download on the App Store